Regional Weather Roundup
Issued by NWS

Home | Current Version | Previous Version | Text Only | Print | Product List | Glossary On
Versions: 1 2 3 4 5 6 7 8 9 10 11 12 13 14 15 16 17 18 19 20 21 22 23 24 25 26 27 28
000
ASUS45 KSLC 060410
RWRUT

UTAH REGIONAL WEATHER ROUNDUP
NATIONAL WEATHER SERVICE SALT LAKE CITY UT
1000 PM MDT THU MAY 05 2016

UTZ001>011-023>025-060500-

NORTHERN UTAH

CITY           SKY/WX    TMP DP  RH WIND       PRES   REMARKS
BRIGHAM CITY   CLOUDY    69  37  30 S3        29.80S
HILL AFB       MOCLDY    68  36  30 E6        29.81S
LOGAN          CLOUDY    62  47  57 CALM      29.83R
OGDEN          MOCLDY    68  37  32 NE6       29.78F
PROVO AIRPORT  CLOUDY   N/A N/A N/A E26G38    29.82R
SALT LAKE CITY MOCLDY    70  42  36 CALM      29.78R
VERNAL         CLOUDY    69  33  26 W13G21    29.94R
WENDOVER       CLOUDY    70  36  28 E12       29.78R
HEBER CITY     CLOUDY    63  34  34 SW7       29.93R

$$

UTZ012>022-026-027-060500-

SOUTHERN/CENTRAL UTAH

CITY           SKY/WX    TMP DP  RH WIND       PRES   REMARKS
BLANDING       CLOUDY    64  39  40 N7        30.03S
BRYCE CANYON   MOCLDY    53  19  26 CALM      29.99R
CEDAR CITY     PTCLDY    50  29  44 SW3       29.84R
DELTA          CLOUDY    68  32  26 E5        29.79R
HANKSVILLE     MOCLDY    70  36  28 E8        29.84S
MILFORD        PTCLDY    61  25  25 S15       29.80R
MOAB/CYNLANDS  LGT RAIN  70  41  34 SW29G45   29.89R
PRICE          CLOUDY    64  34  32 E10       29.97F
ST GEORGE      CLOUDY    75  23  14 W8        29.74R
KANAB          PTCLDY    61  23  23 S3        29.86R

$$

REGIONAL REPORTS     COLORADO/ARIZONA

CITY           SKY/WX    TMP DP  RH WIND       PRES   REMARKS
CRAIG, CO      CLOUDY    51  36  56 CALM      30.01R
GRAND JUNCTION CLOUDY    67  35  30 NE8       29.89R
RIFLE          CLOUDY    64  31  28 SE12      29.96R
MONTROSE       CLEAR     64  29  26 SE8       29.98R
CORTEZ         CLOUDY    72  29  20 S21G26    29.98R
PAGE, AZ       PTCLDY    72  19  13 S7        29.78R
GRAND CANYON   PTCLDY    58  17  20 S9        29.96R
KINGMAN        MOCLDY    69  21  16 S15       29.77R
FLAGSTAFF      CLEAR     55  19  24 S6        29.98R

$$

REGIONAL REPORTS    NEVADA/IDAHO/WYOMING

CITY           SKY/WX    TMP DP  RH WIND       PRES   REMARKS
LAS VEGAS, NV  CLOUDY    78  24  13 S15G21    29.63S
ELY            CLOUDY    51  27  39 S3        29.88R
ELKO           CLOUDY    60  32  34 NW6       29.81R
POCATELLO, ID  CLOUDY    63  43  48 CALM      29.86R
BURLEY         CLOUDY    62  45  53 N6        29.78R
EVANSTON, WY   CLOUDY    59  29  31 S7        30.01R
ROCK SPRINGS   CLOUDY    59  23  25 SE8       30.02S
KEMMERER         N/A     59  27  29 CALM      30.04R

$$




USA.gov is the U.S. government's official web portal to all federal, state and local government web resources and services.